Regional Weather Roundup
Issued by NWS

Home | Current Version | Previous Version | Graphics & Text | Print | Product List | Glossary On
Versions: 1 2 3 4 5 6 7 8 9 10 11 12 13 14 15 16 17 18 19 20 21 22 23 24 25 26 27 28 29 30 31 32 33 34 35 36 37 38 39 40 41 42 43 44 45 46 47 48 49 50
000
ASUS43 KIND 270409
RWRIN

WEATHER ROUNDUP FOR INDIANA
NATIONAL WEATHER SERVICE INDIANAPOLIS IN
1200 AM EDT WED AUG 27 2014

NOTE: "FAIR" INDICATES FEW OR NO CLOUDS BELOW 12,000 FEET WITH NO
SIGNIFICANT WEATHER AND/OR OBSTRUCTIONS TO VISIBILITY.

* - STATION DOES NOT REPORT WEATHER SUCH AS PRECIPITATION OR FOG.

+ - STATION NOT QUALITY CONTROLLED BY THE NATIONAL WEATHER SERVICE.
    USE DATA WITH CAUTION...ESPECIALLY DEWPOINT AND RELATIVE
    HUMIDITY OBSERVATIONS.

INZ001>003-010>013-019-020-270500-
NORTHWEST INDIANA

CITY           SKY/WX    TMP DP  RH WIND       PRES   REMARKS
GARY /AIRPORT/ PTCLDY    72  69  92 NE6       30.11R
KNOX *+        CLOUDY    67  65  93 N5        30.09S VSB<1/4
LA PORTE +     PTCLDY    67  67 100 N3        30.12R FOG
MICHIGAN CITY+ FOG       66  66 100 CALM      30.11S VSB 3/4
MONTICELLO +   CLOUDY    71  70  97 CALM      30.08S
RENSSELAER +   MOCLDY    70  70 100 CALM      30.10R FOG
VALPARAISO     FOG       69  68  96 N5        30.10S VSB 1/4

$$

LMZ046-743>745-270500-
SOUTHERN LAKE MICHIGAN

STATION/POSITION TIME  TEMP WIND        PRES
                       AIR  DIR/SP/G
                 (UTC) (F)  (DEG/KT/KT) (MB)
MICHIGAN CITY    0400   70   40/  5/  6   N/A

$$

INZ004-005-014>016-021>024-270500-
NORTH CENTRAL INDIANA

CITY           SKY/WX    TMP DP  RH WIND       PRES   REMARKS
GOSHEN         FOG       69  66  90 CALM      30.09S VSB 1/4
LOGANSPORT +   CLOUDY    68  66  94 CALM      30.10S FOG
PERU/GRISSOM   MOCLDY    70 N/A N/A SE3       30.09F HAZE
ROCHESTER +    MOCLDY    72  72 100 CALM      30.10S
SOUTH BEND     PTCLDY    69  67  93 N5        30.11S FOG
WARSAW +       PTCLDY    66  66 100 CALM      30.10R FOG

$$

INZ006>009-017-018-025>027-270500-
NORTHEAST INDIANA

CITY           SKY/WX    TMP DP  RH WIND       PRES   REMARKS
ANGOLA *+      PTCLDY    70  61  73 N5        30.10S
AUBURN +       CLEAR     68  64  88 CALM      30.09F FOG
FORT WAYNE     MOCLDY    70  67  90 S6        30.09F
HUNTINGTON +   PTCLDY    70  69  97 CALM      30.09F

$$

INZ028-029-035-036-043>045-051>053-270500-
WEST CENTRAL INDIANA

CITY           SKY/WX    TMP DP  RH WIND       PRES   REMARKS
GREENCASTLE +  CLOUDY    70  70 100 CALM      30.10S
LAFAYETTE      CLOUDY    70  69  97 CALM      30.10R
TERRE HAUTE    CLOUDY    71  68  90 CALM      30.09R

$$

INZ030>032-037>040-046>048-054>057-064-065-270500-
CENTRAL INDIANA

CITY           SKY/WX    TMP DP  RH WIND       PRES   REMARKS
CP ATTERBURY + PTCLDY    68  64  88 CALM      30.10S FOG
FRANKFORT +    CLOUDY   N/A N/A N/A CALM      30.12S HAZE
GREENWOOD *+   MOCLDY    73  72  94 CALM      30.10
INDIANAPOLIS   MOCLDY    74  68  81 CALM      30.08S
-EAGLE CREEK   MOCLDY    74  68  81 CALM      30.09S
KOKOMO *+      MOCLDY    68  66  94 S3        30.10S
MARION +       MOCLDY    69  68  98 CALM      30.11S FOG
MT COMFORT *+  MOCLDY    70 N/A N/A CALM      30.10S
SHELBYVILLE    PTCLDY    72  68  87 CALM      30.09F
ZIONSVILLE +   MOCLDY    70  66  88 CALM      30.12R

$$

INZ033-034-041-042-049-050-058-059-270500-
EAST CENTRAL INDIANA

CITY           SKY/WX    TMP DP  RH WIND       PRES   REMARKS
MUNCIE         PTCLDY    73  69  87 N3        30.11S

$$

INZ060-061-067>069-081>083-085>088-270500-
SOUTHWEST INDIANA

CITY           SKY/WX    TMP DP  RH WIND       PRES   REMARKS
EVANSVILLE     CLEAR     80  72  76 CALM      30.07S
WASHINGTON +   PTCLDY    71  71 100 CALM      30.08S FOG

$$

INZ062-063-066-070>080-084-089>092-270500-
SOUTH CENTRAL AND SOUTHEAST INDIANA

CITY           SKY/WX    TMP DP  RH WIND       PRES   REMARKS
BEDFORD +      CLEAR     70  66  88 CALM      30.09
BLOOMINGTON    PTCLDY    70  68  93 CALM      30.09F

$$




USA.gov is the U.S. government's official web portal to all federal, state and local government web resources and services.